Time,TemperatureF,DewpointF,PressureIn,WindDirection,WindDirectionDegrees,WindSpeedMPH,WindSpeedGustMPH,Humidity,HourlyPrecipIn,Conditions,Clouds,dailyrainin,SoftwareType,DateUTC
2013-10-14 00:00:00,46.0,40.5,30.37,NNE,13,0.0,0.0,81,0.00,,,0.00,VWS V14.01,2013-10-14 05:00:00,
2013-10-14 00:03:00,44.3,39.8,30.36,NNE,13,0.0,0.0,84,0.00,,,0.00,VWS V14.01,2013-10-14 05:03:00,
2013-10-14 00:08:00,44.2,39.7,30.36,NNE,13,0.0,0.0,84,0.00,,,0.00,VWS V14.01,2013-10-14 05:08:00,
2013-10-14 00:13:00,44.2,39.7,30.37,NNE,13,0.0,0.0,84,0.00,,,0.00,VWS V14.01,2013-10-14 05:13:00,
2013-10-14 00:18:00,44.1,39.9,30.36,NNE,13,0.0,0.0,85,0.00,,,0.00,VWS V14.01,2013-10-14 05:18:00,
2013-10-14 00:23:00,44.0,39.8,30.36,NNE,13,0.0,0.0,85,0.00,,,0.00,VWS V14.01,2013-10-14 05:23:00,
2013-10-14 00:28:00,44.0,39.5,30.36,NNE,13,0.0,0.0,84,0.00,,,0.00,VWS V14.01,2013-10-14 05:28:00,
2013-10-14 00:30:00,45.1,40.3,30.37,NNE,13,0.0,0.0,83,0.00,,,0.00,VWS V14.01,2013-10-14 05:30:00,
2013-10-14 00:33:00,43.8,39.6,30.36,NNE,13,0.0,0.0,85,0.00,,,0.00,VWS V14.01,2013-10-14 05:33:00,
2013-10-14 00:38:00,43.7,39.5,30.36,NNE,13,0.0,0.0,85,0.00,,,0.00,VWS V14.01,2013-10-14 05:38:00,
2013-10-14 00:43:00,43.5,39.3,30.36,NNE,13,0.0,0.0,85,0.00,,,0.00,VWS V14.01,2013-10-14 05:43:00,
2013-10-14 00:48:00,43.4,39.2,30.36,NNE,13,0.0,0.0,85,0.00,,,0.00,VWS V14.01,2013-10-14 05:48:00,
2013-10-14 00:53:00,43.3,39.1,30.36,NNE,13,0.0,0.0,85,0.00,,,0.00,VWS V14.01,2013-10-14 05:53:00,
2013-10-14 00:58:00,43.2,39.3,30.37,NNE,13,0.0,0.0,86,0.00,,,0.00,VWS V14.01,2013-10-14 05:58:00,
2013-10-14 01:00:00,44.4,39.9,30.37,NNE,13,0.0,0.0,84,0.00,,,0.00,VWS V14.01,2013-10-14 06:00:00,
2013-10-14 01:03:00,43.1,39.2,30.37,NNE,13,0.0,0.0,86,0.00,,,0.00,VWS V14.01,2013-10-14 06:03:00,
2013-10-14 01:08:00,43.0,39.1,30.36,NNE,13,0.0,0.0,86,0.00,,,0.00,VWS V14.01,2013-10-14 06:08:00,
2013-10-14 01:13:00,42.9,39.0,30.36,NNE,13,0.0,0.0,86,0.00,,,0.00,VWS V14.01,2013-10-14 06:13:00,
2013-10-14 01:18:00,42.8,38.9,30.37,NNE,13,0.0,0.0,86,0.00,,,0.00,VWS V14.01,2013-10-14 06:18:00,
2013-10-14 01:23:00,42.7,38.8,30.36,NNE,13,0.0,0.0,86,0.00,,,0.00,VWS V14.01,2013-10-14 06:23:00,
2013-10-14 01:28:00,42.6,38.7,30.36,NNE,13,0.0,0.0,86,0.00,,,0.00,VWS V14.01,2013-10-14 06:28:00,
2013-10-14 01:30:00,43.9,39.4,30.36,NNE,13,0.0,0.0,84,0.00,,,0.00,VWS V14.01,2013-10-14 06:30:00,
2013-10-14 01:33:00,42.5,38.6,30.36,NNE,13,0.0,0.0,86,0.00,,,0.00,VWS V14.01,2013-10-14 06:33:00,
2013-10-14 01:38:00,42.4,38.8,30.36,NNE,13,0.0,0.0,87,0.00,,,0.00,VWS V14.01,2013-10-14 06:38:00,
2013-10-14 01:43:00,42.3,38.7,30.36,NNE,13,0.0,0.0,87,0.00,,,0.00,VWS V14.01,2013-10-14 06:43:00,
2013-10-14 01:48:00,42.3,38.7,30.36,NNE,13,0.0,0.0,87,0.00,,,0.00,VWS V14.01,2013-10-14 06:48:00,
2013-10-14 01:53:00,42.2,38.6,30.36,NNE,13,0.0,0.0,87,0.00,,,0.00,VWS V14.01,2013-10-14 06:53:00,
2013-10-14 01:58:00,42.1,38.5,30.36,NNE,13,0.0,0.0,87,0.00,,,0.00,VWS V14.01,2013-10-14 06:58:00,
2013-10-14 02:00:00,43.2,39.0,30.36,NNE,13,0.0,0.0,85,0.00,,,0.00,VWS V14.01,2013-10-14 07:00:00,
2013-10-14 02:03:00,42.0,38.4,30.36,NNE,13,0.0,0.0,87,0.00,,,0.00,VWS V14.01,2013-10-14 07:03:00,
2013-10-14 02:08:00,42.0,38.4,30.36,NNE,13,0.0,0.0,87,0.00,,,0.00,VWS V14.01,2013-10-14 07:08:00,
2013-10-14 02:13:00,42.0,38.4,30.36,NNE,13,0.0,0.0,87,0.00,,,0.00,VWS V14.01,2013-10-14 07:13:00,
2013-10-14 02:18:00,41.9,38.3,30.36,NNE,13,0.0,0.0,87,0.00,,,0.00,VWS V14.01,2013-10-14 07:18:00,
2013-10-14 02:23:00,41.8,38.2,30.36,NNE,13,0.0,0.0,87,0.00,,,0.00,VWS V14.01,2013-10-14 07:23:00,
2013-10-14 02:28:00,41.8,38.5,30.37,NNE,13,0.0,0.0,88,0.00,,,0.00,VWS V14.01,2013-10-14 07:28:00,
2013-10-14 02:30:00,42.5,38.6,30.36,NNE,13,0.0,0.0,86,0.00,,,0.00,VWS V14.01,2013-10-14 07:30:00,
2013-10-14 02:33:00,41.7,38.4,30.36,NNE,13,0.0,0.0,88,0.00,,,0.00,VWS V14.01,2013-10-14 07:33:00,
2013-10-14 02:38:00,41.6,38.3,30.36,NNE,13,0.0,0.0,88,0.00,,,0.00,VWS V14.01,2013-10-14 07:38:00,
2013-10-14 02:43:00,41.6,38.3,30.36,NNE,13,0.0,0.0,88,0.00,,,0.00,VWS V14.01,2013-10-14 07:43:00,
2013-10-14 02:48:00,41.4,38.1,30.37,NNE,13,0.0,0.0,88,0.00,,,0.00,VWS V14.01,2013-10-14 07:48:00,
2013-10-14 02:53:00,41.3,38.0,30.37,NNE,13,0.0,0.0,88,0.00,,,0.00,VWS V14.01,2013-10-14 07:53:00,
2013-10-14 02:58:00,41.2,37.9,30.36,NNE,13,0.0,0.0,88,0.00,,,0.00,VWS V14.01,2013-10-14 07:58:00,
2013-10-14 03:00:00,42.1,38.5,30.36,NNE,13,0.0,0.0,87,0.00,,,0.00,VWS V14.01,2013-10-14 08:00:00,
2013-10-14 03:03:00,41.1,37.8,30.36,NNE,13,0.0,0.0,88,0.00,,,0.00,VWS V14.01,2013-10-14 08:03:00,
2013-10-14 03:08:00,41.1,37.8,30.36,NNE,13,0.0,0.0,88,0.00,,,0.00,VWS V14.01,2013-10-14 08:08:00,
2013-10-14 03:13:00,41.0,37.7,30.36,NNE,13,0.0,0.0,88,0.00,,,0.00,VWS V14.01,2013-10-14 08:13:00,
2013-10-14 03:18:00,41.0,37.7,30.36,NNE,13,0.0,0.0,88,0.00,,,0.00,VWS V14.01,2013-10-14 08:18:00,
2013-10-14 03:23:00,40.9,37.6,30.36,NNE,13,0.0,0.0,88,0.00,,,0.00,VWS V14.01,2013-10-14 08:23:00,
2013-10-14 03:28:00,40.9,37.6,30.36,NNE,13,0.0,0.0,88,0.00,,,0.00,VWS V14.01,2013-10-14 08:28:00,
2013-10-14 03:30:00,41.7,38.4,30.36,NNE,13,0.0,0.0,88,0.00,,,0.00,VWS V14.01,2013-10-14 08:30:00,
2013-10-14 03:33:00,40.8,37.5,30.36,NNE,13,0.0,0.0,88,0.00,,,0.00,VWS V14.01,2013-10-14 08:33:00,
2013-10-14 03:38:00,40.7,37.4,30.36,NNE,13,0.0,0.0,88,0.00,,,0.00,VWS V14.01,2013-10-14 08:38:00,
2013-10-14 03:44:00,40.7,37.4,30.36,NNE,13,0.0,0.0,88,0.00,,,0.00,VWS V14.01,2013-10-14 08:44:00,
2013-10-14 03:49:00,40.6,37.3,30.35,NNE,13,0.0,0.0,88,0.00,,,0.00,VWS V14.01,2013-10-14 08:49:00,
2013-10-14 03:54:00,40.6,37.3,30.35,NNE,13,0.0,0.0,88,0.00,,,0.00,VWS V14.01,2013-10-14 08:54:00,
2013-10-14 03:59:00,40.5,37.2,30.35,NNE,13,0.0,0.0,88,0.00,,,0.00,VWS V14.01,2013-10-14 08:59:00,
2013-10-14 04:00:00,41.2,37.9,30.36,NNE,13,0.0,0.0,88,0.00,,,0.00,VWS V14.01,2013-10-14 09:00:00,
2013-10-14 04:04:00,40.5,37.5,30.35,NNE,13,0.0,0.0,89,0.00,,,0.00,VWS V14.01,2013-10-14 09:04:00,
2013-10-14 04:09:00,40.5,37.5,30.34,NNE,13,0.0,0.0,89,0.00,,,0.00,VWS V14.01,2013-10-14 09:09:00,
2013-10-14 04:14:00,40.5,37.5,30.35,NNE,13,0.0,0.0,89,0.00,,,0.00,VWS V14.01,2013-10-14 09:14:00,
2013-10-14 04:19:00,40.5,37.5,30.35,NNE,13,0.0,0.0,89,0.00,,,0.00,VWS V14.01,2013-10-14 09:19:00,
2013-10-14 04:24:00,40.4,37.4,30.35,NNE,13,0.0,0.0,89,0.00,,,0.00,VWS V14.01,2013-10-14 09:24:00,
2013-10-14 04:29:00,40.4,37.4,30.35,NNE,13,0.0,0.0,89,0.00,,,0.00,VWS V14.01,2013-10-14 09:29:00,
2013-10-14 04:30:00,40.8,37.5,30.36,NNE,13,0.0,0.0,88,0.00,,,0.00,VWS V14.01,2013-10-14 09:30:00,
2013-10-14 04:34:00,40.5,37.5,30.35,NNE,13,0.0,0.0,89,0.00,,,0.00,VWS V14.01,2013-10-14 09:34:00,
2013-10-14 04:39:00,40.5,37.5,30.34,NNE,13,0.0,0.0,89,0.00,,,0.00,VWS V14.01,2013-10-14 09:39:00,
2013-10-14 04:44:00,40.5,37.5,30.34,NNE,13,0.0,0.0,89,0.00,,,0.00,VWS V14.01,2013-10-14 09:44:00,
2013-10-14 04:49:00,40.5,37.5,30.34,NNE,13,0.0,0.0,89,0.00,,,0.00,VWS V14.01,2013-10-14 09:49:00,
2013-10-14 04:54:00,40.4,37.4,30.34,NNE,13,0.0,0.0,89,0.00,,,0.00,VWS V14.01,2013-10-14 09:54:00,
2013-10-14 04:59:00,40.5,37.5,30.34,NNE,13,0.0,0.0,89,0.00,,,0.00,VWS V14.01,2013-10-14 09:59:00,
2013-10-14 05:00:00,40.5,37.5,30.35,NNE,13,0.0,0.0,89,0.00,,,0.00,VWS V14.01,2013-10-14 10:00:00,
2013-10-14 05:04:00,40.5,37.5,30.34,NNE,13,0.0,0.0,89,0.00,,,0.00,VWS V14.01,2013-10-14 10:04:00,
2013-10-14 05:09:00,40.5,37.5,30.34,NNE,13,0.0,0.0,89,0.00,,,0.00,VWS V14.01,2013-10-14 10:09:00,
2013-10-14 05:14:00,40.5,37.5,30.34,NNE,13,0.0,0.0,89,0.00,,,0.00,VWS V14.01,2013-10-14 10:14:00,
2013-10-14 05:19:00,40.5,37.5,30.34,NNE,13,0.0,0.0,89,0.00,,,0.00,VWS V14.01,2013-10-14 10:19:00,
2013-10-14 05:24:00,40.6,37.6,30.35,NNE,13,0.0,0.0,89,0.00,,,0.00,VWS V14.01,2013-10-14 10:24:00,
2013-10-14 05:29:00,40.6,37.6,30.35,NNE,13,0.0,0.0,89,0.00,,,0.00,VWS V14.01,2013-10-14 10:29:00,
2013-10-14 05:30:00,40.4,37.4,30.35,NNE,13,0.0,0.0,89,0.00,,,0.00,VWS V14.01,2013-10-14 10:30:00,
2013-10-14 05:34:00,40.7,37.7,30.35,NNE,13,0.0,0.0,89,0.00,,,0.00,VWS V14.01,2013-10-14 10:34:00,
2013-10-14 05:39:00,40.7,37.7,30.34,NNE,13,0.0,0.0,89,0.00,,,0.00,VWS V14.01,2013-10-14 10:39:00,
2013-10-14 05:44:00,40.7,37.7,30.34,NNE,13,0.0,0.0,89,0.00,,,0.00,VWS V14.01,2013-10-14 10:44:00,
2013-10-14 05:49:00,40.6,37.6,30.34,NNE,13,0.0,0.0,89,0.00,,,0.00,VWS V14.01,2013-10-14 10:49:00,
2013-10-14 05:54:00,40.4,37.4,30.34,NNE,13,0.0,0.0,89,0.00,,,0.00,VWS V14.01,2013-10-14 10:54:00,
2013-10-14 05:59:00,40.3,37.3,30.34,NNE,13,0.0,0.0,89,0.00,,,0.00,VWS V14.01,2013-10-14 10:59:00,
2013-10-14 06:00:00,40.5,37.5,30.34,NNE,13,0.0,0.0,89,0.00,,,0.00,VWS V14.01,2013-10-14 11:00:00,
2013-10-14 06:04:00,40.3,37.3,30.34,NNE,13,0.0,0.0,89,0.00,,,0.00,VWS V14.01,2013-10-14 11:04:00,
2013-10-14 06:09:00,40.3,37.3,30.34,NNE,13,0.0,0.0,89,0.00,,,0.00,VWS V14.01,2013-10-14 11:09:00,
2013-10-14 06:14:00,40.3,37.3,30.34,NNE,13,0.0,0.0,89,0.00,,,0.00,VWS V14.01,2013-10-14 11:14:00,
2013-10-14 06:19:00,40.2,37.2,30.34,NNE,13,0.0,0.0,89,0.00,,,0.00,VWS V14.01,2013-10-14 11:19:00,
2013-10-14 06:24:00,40.2,37.2,30.34,NNE,13,0.0,0.0,89,0.00,,,0.00,VWS V14.01,2013-10-14 11:24:00,
2013-10-14 06:29:00,40.2,37.2,30.34,NNE,13,0.0,0.0,89,0.00,,,0.00,VWS V14.01,2013-10-14 11:29:00,
2013-10-14 06:30:00,40.6,37.6,30.35,NNE,13,0.0,0.0,89,0.00,,,0.00,VWS V14.01,2013-10-14 11:30:00,
2013-10-14 06:34:00,40.2,37.2,30.34,NNE,13,0.0,0.0,89,0.00,,,0.00,VWS V14.01,2013-10-14 11:34:00,
2013-10-14 06:39:00,40.1,37.1,30.34,NNE,13,0.0,0.0,89,0.00,,,0.00,VWS V14.01,2013-10-14 11:39:00,
2013-10-14 06:44:00,40.1,37.1,30.34,NNE,13,0.0,0.0,89,0.00,,,0.00,VWS V14.01,2013-10-14 11:44:00,
2013-10-14 06:49:00,40.1,37.1,30.35,NNE,13,0.0,0.0,89,0.00,,,0.00,VWS V14.01,2013-10-14 11:49:00,
2013-10-14 06:54:00,40.1,37.4,30.35,NNE,13,0.0,0.0,90,0.00,,,0.00,VWS V14.01,2013-10-14 11:54:00,
2013-10-14 06:59:00,40.2,37.5,30.35,NNE,13,0.0,0.0,90,0.00,,,0.00,VWS V14.01,2013-10-14 11:59:00,
2013-10-14 07:00:00,40.3,37.3,30.34,NNE,13,0.0,0.0,89,0.00,,,0.00,VWS V14.01,2013-10-14 12:00:00,
2013-10-14 07:04:00,40.2,37.5,30.35,NNE,13,0.0,0.0,90,0.00,,,0.00,VWS V14.01,2013-10-14 12:04:00,
2013-10-14 07:09:00,40.2,37.5,30.34,NNE,13,0.0,0.0,90,0.00,,,0.00,VWS V14.01,2013-10-14 12:09:00,
2013-10-14 07:14:00,40.2,37.5,30.34,NNE,13,0.0,0.0,90,0.00,,,0.00,VWS V14.01,2013-10-14 12:14:00,
2013-10-14 07:19:00,40.2,37.5,30.34,NNE,13,0.0,0.0,90,0.00,,,0.00,VWS V14.01,2013-10-14 12:19:00,
2013-10-14 07:24:00,40.1,37.4,30.34,NNE,13,0.0,0.0,90,0.00,,,0.00,VWS V14.01,2013-10-14 12:24:00,
2013-10-14 07:29:00,40.2,37.5,30.34,NNE,13,0.0,0.0,90,0.00,,,0.00,VWS V14.01,2013-10-14 12:29:00,
2013-10-14 07:30:00,40.2,37.2,30.34,NNE,13,0.0,0.0,89,0.00,,,0.00,VWS V14.01,2013-10-14 12:30:00,
2013-10-14 07:34:00,40.3,37.6,30.34,NNE,13,0.0,0.0,90,0.00,,,0.00,VWS V14.01,2013-10-14 12:34:00,
2013-10-14 07:39:00,40.4,37.7,30.34,NNE,13,0.0,0.0,90,0.00,,,0.00,VWS V14.01,2013-10-14 12:39:00,
2013-10-14 07:44:00,40.5,37.8,30.34,NNE,13,0.0,0.0,90,0.00,,,0.00,VWS V14.01,2013-10-14 12:44:00,
2013-10-14 07:49:00,40.7,38.0,30.34,NNE,13,0.0,0.0,90,0.00,,,0.00,VWS V14.01,2013-10-14 12:49:00,
2013-10-14 07:54:00,40.9,38.2,30.34,NNE,13,0.0,0.0,90,0.00,,,0.00,VWS V14.01,2013-10-14 12:54:00,
2013-10-14 07:59:00,41.1,38.4,30.35,NNE,13,0.0,0.0,90,0.00,,,0.00,VWS V14.01,2013-10-14 12:59:00,
2013-10-14 08:00:00,40.2,37.5,30.35,NNE,13,0.0,0.0,90,0.00,,,0.00,VWS V14.01,2013-10-14 13:00:00,
2013-10-14 08:04:00,41.4,39.0,30.35,NNE,13,0.0,0.0,91,0.00,,,0.00,VWS V14.01,2013-10-14 13:04:00,
2013-10-14 08:09:00,41.8,39.4,30.34,NNE,13,0.0,0.0,91,0.00,,,0.00,VWS V14.01,2013-10-14 13:09:00,
2013-10-14 08:14:00,42.1,39.7,30.35,NNE,13,0.0,0.0,91,0.00,,,0.00,VWS V14.01,2013-10-14 13:14:00,
2013-10-14 08:19:00,42.4,40.0,30.35,NNE,13,0.0,0.0,91,0.00,,,0.00,VWS V14.01,2013-10-14 13:19:00,
2013-10-14 08:24:00,42.8,40.4,30.35,NNE,13,0.0,0.0,91,0.00,,,0.00,VWS V14.01,2013-10-14 13:24:00,
2013-10-14 08:29:00,43.3,40.8,30.35,NNE,15,0.0,0.0,91,0.00,,,0.00,VWS V14.01,2013-10-14 13:29:00,
2013-10-14 08:30:00,40.2,37.5,30.34,NNE,13,0.0,0.0,90,0.00,,,0.00,VWS V14.01,2013-10-14 13:30:00,
2013-10-14 08:34:00,44.5,42.0,30.35,NNE,16,0.0,0.0,91,0.00,,,0.00,VWS V14.01,2013-10-14 13:34:00,
2013-10-14 08:39:00,45.8,41.9,30.35,NNE,21,0.0,0.0,86,0.00,,,0.00,VWS V14.01,2013-10-14 13:39:00,
2013-10-14 08:44:00,46.9,42.0,30.35,NNE,22,0.0,0.0,83,0.00,,,0.00,VWS V14.01,2013-10-14 13:44:00,
2013-10-14 08:49:00,47.7,42.2,30.34,NNE,31,1.0,2.0,81,0.00,,,0.00,VWS V14.01,2013-10-14 13:49:00,
2013-10-14 08:54:00,48.5,42.3,30.34,East,88,1.0,3.0,79,0.00,,,0.00,VWS V14.01,2013-10-14 13:54:00,
2013-10-14 08:59:00,49.4,42.5,30.34,East,86,1.0,5.0,77,0.00,,,0.00,VWS V14.01,2013-10-14 13:59:00,
2013-10-14 09:00:00,41.2,38.8,30.35,NNE,13,0.0,0.0,91,0.00,,,0.00,VWS V14.01,2013-10-14 14:00:00,
2013-10-14 09:04:00,50.2,42.6,30.34,East,87,1.0,3.0,75,0.00,,,0.00,VWS V14.01,2013-10-14 14:04:00,
2013-10-14 09:09:00,50.7,42.4,30.34,East,88,0.0,4.0,73,0.00,,,0.00,VWS V14.01,2013-10-14 14:09:00,
2013-10-14 09:14:00,51.1,42.4,30.34,East,85,0.0,4.0,72,0.00,,,0.00,VWS V14.01,2013-10-14 14:14:00,
2013-10-14 09:19:00,51.5,42.8,30.34,East,86,0.0,4.0,72,0.00,,,0.00,VWS V14.01,2013-10-14 14:19:00,
2013-10-14 09:24:00,52.2,43.1,30.34,East,88,3.0,4.0,71,0.00,,,0.00,VWS V14.01,2013-10-14 14:24:00,
2013-10-14 09:29:00,52.7,43.6,30.34,East,89,0.0,4.0,71,0.00,,,0.00,VWS V14.01,2013-10-14 14:29:00,
2013-10-14 09:30:00,43.5,41.0,30.35,NNE,15,0.0,0.0,91,0.00,,,0.00,VWS V14.01,2013-10-14 14:30:00,
2013-10-14 09:34:00,53.4,43.5,30.34,ESE,119,0.0,9.0,69,0.00,,,0.00,VWS V14.01,2013-10-14 14:34:00,
2013-10-14 09:39:00,53.9,43.2,30.34,East,82,1.0,9.0,67,0.00,,,0.00,VWS V14.01,2013-10-14 14:39:00,
2013-10-14 09:44:00,54.4,44.1,30.33,East,96,0.0,9.0,68,0.00,,,0.00,VWS V14.01,2013-10-14 14:44:00,
2013-10-14 09:49:00,54.9,43.8,30.33,SE,126,0.0,9.0,66,0.00,,,0.00,VWS V14.01,2013-10-14 14:49:00,
2013-10-14 09:54:00,55.6,43.6,30.33,ESE,115,0.0,9.0,64,0.00,,,0.00,VWS V14.01,2013-10-14 14:54:00,
2013-10-14 09:59:00,56.0,43.2,30.32,East,96,2.0,9.0,62,0.00,,,0.00,VWS V14.01,2013-10-14 14:59:00,
2013-10-14 10:00:00,49.6,42.4,30.34,East,86,0.0,5.0,76,0.00,,,0.00,VWS V14.01,2013-10-14 15:00:00,
2013-10-14 10:04:00,56.0,43.2,30.32,ESE,104,5.0,9.0,62,0.00,,,0.00,VWS V14.01,2013-10-14 15:04:00,
2013-10-14 10:09:00,55.9,43.1,30.32,East,84,2.0,9.0,62,0.00,,,0.00,VWS V14.01,2013-10-14 15:09:00,
2013-10-14 10:14:00,55.9,43.5,30.32,ESE,121,0.0,9.0,63,0.00,,,0.00,VWS V14.01,2013-10-14 15:14:00,
2013-10-14 10:19:00,56.2,43.8,30.32,East,86,2.0,9.0,63,0.00,,,0.00,VWS V14.01,2013-10-14 15:19:00,
2013-10-14 10:24:00,56.1,42.8,30.31,South,186,3.0,9.0,61,0.00,,,0.00,VWS V14.01,2013-10-14 15:24:00,
2013-10-14 10:29:00,56.1,43.3,30.31,ESE,114,0.0,9.0,62,0.00,,,0.00,VWS V14.01,2013-10-14 15:29:00,
2013-10-14 10:30:00,52.8,43.7,30.34,East,89,0.0,4.0,71,0.00,,,0.00,VWS V14.01,2013-10-14 15:30:00,
2013-10-14 10:34:00,56.2,43.4,30.31,ESE,113,1.0,2.0,62,0.00,,,0.00,VWS V14.01,2013-10-14 15:34:00,
2013-10-14 10:39:00,56.3,43.9,30.31,East,92,0.0,5.0,63,0.00,,,0.00,VWS V14.01,2013-10-14 15:39:00,
2013-10-14 10:44:00,56.3,43.0,30.30,East,88,0.0,6.0,61,0.00,,,0.00,VWS V14.01,2013-10-14 15:44:00,
2013-10-14 10:49:00,56.3,42.6,30.31,ESE,105,1.0,6.0,60,0.00,,,0.00,VWS V14.01,2013-10-14 15:49:00,
2013-10-14 10:54:00,56.4,42.7,30.30,ESE,122,1.0,6.0,60,0.00,,,0.00,VWS V14.01,2013-10-14 15:54:00,
2013-10-14 10:59:00,56.6,42.5,30.29,East,84,2.0,6.0,59,0.00,,,0.00,VWS V14.01,2013-10-14 15:59:00,
2013-10-14 11:00:00,55.9,43.1,30.32,ESE,111,1.0,9.0,62,0.00,,,0.00,VWS V14.01,2013-10-14 16:00:00,
2013-10-14 11:04:00,56.8,43.9,30.29,East,84,2.0,4.0,62,0.00,,,0.00,VWS V14.01,2013-10-14 16:04:00,
2013-10-14 11:09:00,57.5,43.3,30.29,SE,130,0.0,6.0,59,0.00,,,0.00,VWS V14.01,2013-10-14 16:09:00,
2013-10-14 11:14:00,58.3,43.2,30.29,SSE,167,2.0,10.0,57,0.00,,,0.00,VWS V14.01,2013-10-14 16:14:00,
2013-10-14 11:19:00,59.0,44.3,30.29,East,88,0.0,10.0,58,0.00,,,0.00,VWS V14.01,2013-10-14 16:19:00,
2013-10-14 11:24:00,59.3,43.6,30.29,ESE,104,0.0,10.0,56,0.00,,,0.00,VWS V14.01,2013-10-14 16:24:00,
2013-10-14 11:29:00,59.6,43.9,30.28,ENE,78,3.0,10.0,56,0.00,,,0.00,VWS V14.01,2013-10-14 16:29:00,
2013-10-14 11:30:00,56.1,43.3,30.31,ESE,114,0.0,9.0,62,0.00,,,0.00,VWS V14.01,2013-10-14 16:30:00,
2013-10-14 11:34:00,59.4,43.2,30.29,East,84,0.0,3.0,55,0.00,,,0.00,VWS V14.01,2013-10-14 16:34:00,
2013-10-14 11:39:00,59.5,43.8,30.28,East,87,5.0,6.0,56,0.00,,,0.00,VWS V14.01,2013-10-14 16:39:00,
2013-10-14 11:44:00,59.5,43.8,30.28,East,85,0.0,6.0,56,0.00,,,0.00,VWS V14.01,2013-10-14 16:44:00,
2013-10-14 11:49:00,59.9,44.7,30.28,East,101,1.0,6.0,57,0.00,,,0.00,VWS V14.01,2013-10-14 16:49:00,
2013-10-14 11:54:00,60.3,45.0,30.28,East,98,0.0,6.0,57,0.00,,,0.00,VWS V14.01,2013-10-14 16:54:00,
2013-10-14 11:59:00,61.2,44.4,30.28,SE,140,2.0,8.0,54,0.00,,,0.00,VWS V14.01,2013-10-14 16:59:00,
2013-10-14 12:00:00,56.6,42.5,30.29,East,88,1.0,6.0,59,0.00,,,0.00,VWS V14.01,2013-10-14 17:00:00,
2013-10-14 12:04:00,62.0,44.7,30.27,ESE,120,2.0,5.0,53,0.00,,,0.00,VWS V14.01,2013-10-14 17:04:00,
2013-10-14 12:09:00,62.3,45.5,30.27,East,85,0.0,5.0,54,0.00,,,0.00,VWS V14.01,2013-10-14 17:09:00,
2013-10-14 12:15:00,62.6,45.7,30.27,East,85,0.0,5.0,54,0.00,,,0.00,VWS V14.01,2013-10-14 17:15:00,
2013-10-14 12:20:00,62.9,44.0,30.26,ESE,122,0.0,5.0,50,0.00,,,0.00,VWS V14.01,2013-10-14 17:20:00,
2013-10-14 12:25:00,63.2,44.3,30.26,ESE,119,0.0,5.0,50,0.00,,,0.00,VWS V14.01,2013-10-14 17:25:00,
2013-10-14 12:30:00,63.4,44.5,30.25,ESE,103,2.0,5.0,50,0.00,,,0.00,VWS V14.01,2013-10-14 17:30:00,
2013-10-14 12:35:00,63.4,43.9,30.25,East,84,0.0,7.0,49,0.00,,,0.00,VWS V14.01,2013-10-14 17:35:00,
2013-10-14 12:40:00,63.7,44.2,30.25,East,101,0.0,7.0,49,0.00,,,0.00,VWS V14.01,2013-10-14 17:40:00,
2013-10-14 12:45:00,63.8,45.3,30.25,ESE,103,0.0,7.0,51,0.00,,,0.00,VWS V14.01,2013-10-14 17:45:00,
2013-10-14 12:50:00,64.2,44.7,30.25,ESE,103,2.0,7.0,49,0.00,,,0.00,VWS V14.01,2013-10-14 17:50:00,
2013-10-14 12:55:00,64.5,43.8,30.24,ENE,77,4.0,10.0,47,0.00,,,0.00,VWS V14.01,2013-10-14 17:55:00,
2013-10-14 13:00:00,64.7,43.5,30.24,East,95,0.0,10.0,46,0.00,,,0.00,VWS V14.01,2013-10-14 18:00:00,
2013-10-14 13:05:00,64.9,44.2,30.24,South,184,0.0,4.0,47,0.00,,,0.00,VWS V14.01,2013-10-14 18:05:00,
2013-10-14 13:10:00,65.0,44.3,30.24,East,94,0.0,7.0,47,0.00,,,0.00,VWS V14.01,2013-10-14 18:10:00,
2013-10-14 13:15:00,65.0,44.3,30.23,East,94,0.0,7.0,47,0.00,,,0.00,VWS V14.01,2013-10-14 18:15:00,
2013-10-14 13:20:00,65.0,44.3,30.23,East,92,2.0,7.0,47,0.00,,,0.00,VWS V14.01,2013-10-14 18:20:00,
2013-10-14 13:25:00,65.0,44.3,30.22,East,92,0.0,7.0,47,0.00,,,0.00,VWS V14.01,2013-10-14 18:25:00,
2013-10-14 13:30:00,65.3,44.0,30.22,East,87,2.0,7.0,46,0.00,,,0.00,VWS V14.01,2013-10-14 18:30:00,
2013-10-14 13:35:00,65.4,45.2,30.22,SE,126,0.0,4.0,48,0.00,,,0.00,VWS V14.01,2013-10-14 18:35:00,
2013-10-14 13:40:00,65.8,44.5,30.22,SE,136,0.0,7.0,46,0.00,,,0.00,VWS V14.01,2013-10-14 18:40:00,
2013-10-14 13:45:00,66.3,44.9,30.21,ESE,117,2.0,7.0,46,0.00,,,0.00,VWS V14.01,2013-10-14 18:45:00,
2013-10-14 13:50:00,66.3,43.8,30.21,SE,132,1.0,7.0,44,0.00,,,0.00,VWS V14.01,2013-10-14 18:50:00,
2013-10-14 13:55:00,66.3,44.9,30.21,SE,129,0.0,7.0,46,0.00,,,0.00,VWS V14.01,2013-10-14 18:55:00,
2013-10-14 14:00:00,66.7,46.4,30.20,SE,128,0.0,7.0,48,0.00,,,0.00,VWS V14.01,2013-10-14 19:00:00,
2013-10-14 14:05:00,67.0,45.0,30.20,SE,125,0.0,4.0,45,0.00,,,0.00,VWS V14.01,2013-10-14 19:05:00,
2013-10-14 14:10:00,67.1,45.7,30.19,ESE,119,0.0,4.0,46,0.00,,,0.00,VWS V14.01,2013-10-14 19:10:00,
2013-10-14 14:15:00,67.2,44.0,30.18,ESE,112,4.0,4.0,43,0.00,,,0.00,VWS V14.01,2013-10-14 19:15:00,
2013-10-14 14:20:00,67.1,45.1,30.18,ESE,111,0.0,4.0,45,0.00,,,0.00,VWS V14.01,2013-10-14 19:20:00,
2013-10-14 14:25:00,66.9,44.9,30.18,East,90,0.0,7.0,45,0.00,,,0.00,VWS V14.01,2013-10-14 19:25:00,
2013-10-14 14:30:00,66.6,45.2,30.17,ENE,78,1.0,7.0,46,0.00,,,0.00,VWS V14.01,2013-10-14 19:30:00,
2013-10-14 14:35:00,66.6,45.2,30.17,ENE,78,3.0,4.0,46,0.00,,,0.00,VWS V14.01,2013-10-14 19:35:00,
2013-10-14 14:40:00,66.9,44.3,30.17,East,81,3.0,4.0,44,0.00,,,0.00,VWS V14.01,2013-10-14 19:40:00,
2013-10-14 14:45:00,67.2,45.7,30.17,East,82,0.0,4.0,46,0.00,,,0.00,VWS V14.01,2013-10-14 19:45:00,
2013-10-14 14:50:00,67.4,45.3,30.16,East,86,2.0,4.0,45,0.00,,,0.00,VWS V14.01,2013-10-14 19:50:00,
2013-10-14 14:55:00,67.3,45.2,30.16,East,87,0.0,4.0,45,0.00,,,0.00,VWS V14.01,2013-10-14 19:55:00,
2013-10-14 15:00:00,67.3,45.2,30.16,East,87,0.0,4.0,45,0.00,,,0.00,VWS V14.01,2013-10-14 20:00:00,
2013-10-14 15:05:00,67.2,45.7,30.16,East,86,0.0,6.0,46,0.00,,,0.00,VWS V14.01,2013-10-14 20:05:00,
2013-10-14 15:10:00,67.1,44.5,30.16,SE,130,0.0,6.0,44,0.00,,,0.00,VWS V14.01,2013-10-14 20:10:00,
2013-10-14 15:15:00,67.1,45.7,30.15,ESE,117,2.0,6.0,46,0.00,,,0.00,VWS V14.01,2013-10-14 20:15:00,
2013-10-14 15:20:00,67.2,45.2,30.16,ESE,113,0.0,6.0,45,0.00,,,0.00,VWS V14.01,2013-10-14 20:20:00,
2013-10-14 15:25:00,67.3,44.7,30.16,ESE,113,0.0,6.0,44,0.00,,,0.00,VWS V14.01,2013-10-14 20:25:00,
2013-10-14 15:30:00,67.4,45.3,30.15,ESE,113,0.0,6.0,45,0.00,,,0.00,VWS V14.01,2013-10-14 20:30:00,
2013-10-14 15:35:00,67.4,44.8,30.15,East,94,0.0,6.0,44,0.00,,,0.00,VWS V14.01,2013-10-14 20:35:00,
2013-10-14 15:40:00,67.4,45.3,30.15,SE,137,0.0,6.0,45,0.00,,,0.00,VWS V14.01,2013-10-14 20:40:00,
2013-10-14 15:45:00,67.4,45.9,30.15,SE,133,0.0,6.0,46,0.00,,,0.00,VWS V14.01,2013-10-14 20:45:00,
2013-10-14 15:50:00,67.4,44.8,30.15,SE,130,0.0,6.0,44,0.00,,,0.00,VWS V14.01,2013-10-14 20:50:00,
2013-10-14 15:55:00,67.4,45.3,30.15,SE,142,0.0,6.0,45,0.00,,,0.00,VWS V14.01,2013-10-14 20:55:00,
2013-10-14 16:00:00,67.4,45.9,30.15,SE,130,0.0,0.0,46,0.00,,,0.00,VWS V14.01,2013-10-14 21:00:00,
2013-10-14 16:05:00,67.2,45.7,30.14,SE,129,0.0,2.0,46,0.00,,,0.00,VWS V14.01,2013-10-14 21:05:00,
2013-10-14 16:10:00,67.0,45.6,30.14,SE,126,0.0,4.0,46,0.00,,,0.00,VWS V14.01,2013-10-14 21:10:00,
2013-10-14 16:15:00,66.9,47.1,30.14,SE,126,0.0,4.0,49,0.00,,,0.00,VWS V14.01,2013-10-14 21:15:00,
2013-10-14 16:20:00,66.7,47.0,30.14,SE,126,0.0,4.0,49,0.00,,,0.00,VWS V14.01,2013-10-14 21:20:00,
2013-10-14 16:25:00,66.5,45.7,30.14,SE,124,0.0,4.0,47,0.00,,,0.00,VWS V14.01,2013-10-14 21:25:00,
2013-10-14 16:30:00,66.4,45.6,30.12,ESE,123,0.0,0.0,47,0.00,,,0.00,VWS V14.01,2013-10-14 21:30:00,
2013-10-14 16:35:00,66.3,46.0,30.12,ESE,123,0.0,1.0,48,0.00,,,0.00,VWS V14.01,2013-10-14 21:35:00,
2013-10-14 16:40:00,66.2,46.5,30.12,ESE,123,0.0,2.0,49,0.00,,,0.00,VWS V14.01,2013-10-14 21:40:00,
2013-10-14 16:45:00,66.2,47.0,30.12,ESE,123,0.0,2.0,50,0.00,,,0.00,VWS V14.01,2013-10-14 21:45:00,
2013-10-14 16:50:00,66.2,47.0,30.13,ESE,123,0.0,4.0,50,0.00,,,0.00,VWS V14.01,2013-10-14 21:50:00,
2013-10-14 16:55:00,66.2,47.0,30.13,ESE,123,0.0,4.0,50,0.00,,,0.00,VWS V14.01,2013-10-14 21:55:00,
2013-10-14 17:00:00,66.2,47.0,30.13,ESE,123,0.0,0.0,50,0.00,,,0.00,VWS V14.01,2013-10-14 22:00:00,
2013-10-14 17:05:00,66.2,47.0,30.13,ESE,123,0.0,0.0,50,0.00,,,0.00,VWS V14.01,2013-10-14 22:05:00,
2013-10-14 17:15:00,65.9,46.2,30.13,ESE,123,0.0,1.0,49,0.00,,,0.00,VWS V14.01,2013-10-14 22:15:00,
2013-10-14 17:20:00,65.6,47.5,30.13,ESE,123,0.0,1.0,52,0.00,,,0.00,VWS V14.01,2013-10-14 22:20:00,
2013-10-14 17:25:00,65.4,47.8,30.13,ESE,123,0.0,1.0,53,0.00,,,0.00,VWS V14.01,2013-10-14 22:25:00,
2013-10-14 17:30:00,65.0,46.5,30.13,SE,124,0.0,0.0,51,0.00,,,0.00,VWS V14.01,2013-10-14 22:30:00,
2013-10-14 17:35:00,64.8,45.7,30.12,SE,124,0.0,2.0,50,0.00,,,0.00,VWS V14.01,2013-10-14 22:35:00,
2013-10-14 17:40:00,64.5,46.5,30.12,SE,124,0.0,2.0,52,0.00,,,0.00,VWS V14.01,2013-10-14 22:40:00,
2013-10-14 17:45:00,64.3,46.3,30.13,SE,124,0.0,2.0,52,0.00,,,0.00,VWS V14.01,2013-10-14 22:45:00,
2013-10-14 17:50:00,64.1,46.1,30.12,SE,124,0.0,2.0,52,0.00,,,0.00,VWS V14.01,2013-10-14 22:50:00,
2013-10-14 17:55:00,63.9,46.5,30.12,SE,124,0.0,2.0,53,0.00,,,0.00,VWS V14.01,2013-10-14 22:55:00,
2013-10-14 18:00:00,63.7,45.8,30.12,SE,124,0.0,1.0,52,0.00,,,0.00,VWS V14.01,2013-10-14 23:00:00,
2013-10-14 18:05:00,63.5,45.6,30.11,SE,124,1.0,1.0,52,0.00,,,0.00,VWS V14.01,2013-10-14 23:05:00,
2013-10-14 18:11:00,63.4,46.5,30.11,SE,125,0.0,2.0,54,0.00,,,0.00,VWS V14.01,2013-10-14 23:11:00,
2013-10-14 18:16:00,63.3,46.4,30.12,SE,125,0.0,2.0,54,0.00,,,0.00,VWS V14.01,2013-10-14 23:16:00,
2013-10-14 18:21:00,63.1,46.2,30.11,SE,125,0.0,2.0,54,0.00,,,0.00,VWS V14.01,2013-10-14 23:21:00,
2013-10-14 18:26:00,62.9,46.5,30.12,SE,125,0.0,2.0,55,0.00,,,0.00,VWS V14.01,2013-10-14 23:26:00,
2013-10-14 18:30:00,65.1,46.5,30.13,SE,124,0.0,4.0,51,0.00,,,0.00,VWS V14.01,2013-10-14 23:30:00,
2013-10-14 18:31:00,62.6,46.7,30.11,SE,125,0.0,0.0,56,0.00,,,0.00,VWS V14.01,2013-10-14 23:31:00,
2013-10-14 18:36:00,62.4,46.0,30.11,SE,124,0.0,4.0,55,0.00,,,0.00,VWS V14.01,2013-10-14 23:36:00,
2013-10-14 18:41:00,62.3,46.0,30.11,SE,124,1.0,4.0,55,0.00,,,0.00,VWS V14.01,2013-10-14 23:41:00,
2013-10-14 18:46:00,62.2,45.8,30.11,SE,129,0.0,4.0,55,0.00,,,0.00,VWS V14.01,2013-10-14 23:46:00,
2013-10-14 18:51:00,62.1,45.8,30.11,SE,130,0.0,4.0,55,0.00,,,0.00,VWS V14.01,2013-10-14 23:51:00,
2013-10-14 18:56:00,62.1,45.8,30.11,SE,142,6.0,6.0,55,0.00,,,0.00,VWS V14.01,2013-10-14 23:56:00,
2013-10-14 19:00:00,63.7,45.8,30.12,SE,124,1.0,2.0,52,0.00,,,0.00,VWS V14.01,2013-10-15 00:00:00,
2013-10-14 19:01:00,62.2,45.8,30.10,SE,140,0.0,0.0,55,0.00,,,0.00,VWS V14.01,2013-10-15 00:01:00,
2013-10-14 19:06:00,62.2,45.8,30.10,SE,140,0.0,0.0,55,0.00,,,0.00,VWS V14.01,2013-10-15 00:06:00,
2013-10-14 19:11:00,62.2,45.8,30.10,SE,139,0.0,4.0,55,0.00,,,0.00,VWS V14.01,2013-10-15 00:11:00,
2013-10-14 19:16:00,62.2,46.3,30.11,SE,138,2.0,6.0,56,0.00,,,0.00,VWS V14.01,2013-10-15 00:16:00,
2013-10-14 19:21:00,62.2,45.8,30.11,SE,138,0.0,6.0,55,0.00,,,0.00,VWS V14.01,2013-10-15 00:21:00,
2013-10-14 19:26:00,62.2,46.3,30.10,SE,138,0.0,6.0,56,0.00,,,0.00,VWS V14.01,2013-10-15 00:26:00,
2013-10-14 19:30:00,62.7,46.8,30.12,SE,125,0.0,2.0,56,0.00,,,0.00,VWS V14.01,2013-10-15 00:30:00,
2013-10-14 19:31:00,62.1,45.8,30.10,SE,134,4.0,5.0,55,0.00,,,0.00,VWS V14.01,2013-10-15 00:31:00,
2013-10-14 19:36:00,62.2,46.3,30.10,SE,131,0.0,5.0,56,0.00,,,0.00,VWS V14.01,2013-10-15 00:36:00,
2013-10-14 19:41:00,62.2,46.3,30.09,SE,131,0.0,5.0,56,0.00,,,0.00,VWS V14.01,2013-10-15 00:41:00,
2013-10-14 19:46:00,62.2,46.8,30.10,SE,131,0.0,5.0,57,0.00,,,0.00,VWS V14.01,2013-10-15 00:46:00,
2013-10-14 19:51:00,62.1,46.2,30.10,SE,131,2.0,5.0,56,0.00,,,0.00,VWS V14.01,2013-10-15 00:51:00,
2013-10-14 19:56:00,62.2,46.3,30.09,SE,131,1.0,5.0,56,0.00,,,0.00,VWS V14.01,2013-10-15 00:56:00,
2013-10-14 20:00:00,62.2,45.8,30.10,SE,141,0.0,6.0,55,0.00,,,0.00,VWS V14.01,2013-10-15 01:00:00,
2013-10-14 20:01:00,62.3,46.4,30.09,SE,131,0.0,0.0,56,0.00,,,0.00,VWS V14.01,2013-10-15 01:01:00,
2013-10-14 20:06:00,62.3,46.9,30.08,SE,131,0.0,1.0,57,0.00,,,0.00,VWS V14.01,2013-10-15 01:06:00,
2013-10-14 20:11:00,62.3,46.4,30.08,SE,139,0.0,6.0,56,0.00,,,0.00,VWS V14.01,2013-10-15 01:11:00,
2013-10-14 20:16:00,62.4,46.5,30.09,SE,126,0.0,6.0,56,0.00,,,0.00,VWS V14.01,2013-10-15 01:16:00,
2013-10-14 20:21:00,62.6,46.2,30.08,SE,135,0.0,6.0,55,0.00,,,0.00,VWS V14.01,2013-10-15 01:21:00,
2013-10-14 20:26:00,62.7,46.8,30.09,SE,142,0.0,6.0,56,0.00,,,0.00,VWS V14.01,2013-10-15 01:26:00,
2013-10-14 20:30:00,62.1,45.8,30.10,SE,138,0.0,6.0,55,0.00,,,0.00,VWS V14.01,2013-10-15 01:30:00,
2013-10-14 20:31:00,62.7,46.8,30.08,SE,135,0.0,0.0,56,0.00,,,0.00,VWS V14.01,2013-10-15 01:31:00,
2013-10-14 20:36:00,62.6,46.7,30.08,ESE,121,2.0,5.0,56,0.00,,,0.00,VWS V14.01,2013-10-15 01:36:00,
2013-10-14 20:41:00,62.6,46.7,30.09,ESE,120,0.0,5.0,56,0.00,,,0.00,VWS V14.01,2013-10-15 01:41:00,
2013-10-14 20:46:00,62.6,47.2,30.09,SSE,155,0.0,5.0,57,0.00,,,0.00,VWS V14.01,2013-10-15 01:46:00,
2013-10-14 20:51:00,62.7,47.3,30.09,SSE,148,0.0,5.0,57,0.00,,,0.00,VWS V14.01,2013-10-15 01:51:00,
2013-10-14 20:56:00,62.6,47.2,30.08,SSE,148,0.0,5.0,57,0.00,,,0.00,VWS V14.01,2013-10-15 01:56:00,
2013-10-14 21:00:00,62.3,46.9,30.09,SE,131,0.0,5.0,57,0.00,,,0.00,VWS V14.01,2013-10-15 02:00:00,
2013-10-14 21:01:00,62.6,46.7,30.09,SE,146,0.0,4.0,56,0.00,,,0.00,VWS V14.01,2013-10-15 02:01:00,
2013-10-14 21:06:00,62.7,47.3,30.09,SE,134,2.0,8.0,57,0.00,,,0.00,VWS V14.01,2013-10-15 02:06:00,
2013-10-14 21:11:00,62.7,47.7,30.09,SE,134,0.0,8.0,58,0.00,,,0.00,VWS V14.01,2013-10-15 02:11:00,
2013-10-14 21:16:00,62.7,47.3,30.09,SE,134,0.0,8.0,57,0.00,,,0.00,VWS V14.01,2013-10-15 02:16:00,
2013-10-14 21:21:00,62.7,47.3,30.09,SE,132,0.0,8.0,57,0.00,,,0.00,VWS V14.01,2013-10-15 02:21:00,
2013-10-14 21:26:00,62.9,47.9,30.09,SSE,147,0.0,8.0,58,0.00,,,0.00,VWS V14.01,2013-10-15 02:26:00,
2013-10-14 21:30:00,62.7,46.8,30.08,SE,135,0.0,6.0,56,0.00,,,0.00,VWS V14.01,2013-10-15 02:30:00,
2013-10-14 21:31:00,62.9,47.9,30.09,SSE,153,0.0,0.0,58,0.00,,,0.00,VWS V14.01,2013-10-15 02:31:00,
2013-10-14 21:36:00,63.1,48.1,30.08,ESE,107,0.0,8.0,58,0.00,,,0.00,VWS V14.01,2013-10-15 02:36:00,
2013-10-14 21:41:00,63.2,48.2,30.08,ESE,120,0.0,8.0,58,0.00,,,0.00,VWS V14.01,2013-10-15 02:41:00,
2013-10-14 21:46:00,63.3,48.3,30.09,ESE,121,0.0,8.0,58,0.00,,,0.00,VWS V14.01,2013-10-15 02:46:00,
2013-10-14 21:51:00,63.2,48.2,30.09,ESE,119,0.0,8.0,58,0.00,,,0.00,VWS V14.01,2013-10-15 02:51:00,
2013-10-14 21:56:00,63.2,48.7,30.08,ESE,115,0.0,8.0,59,0.00,,,0.00,VWS V14.01,2013-10-15 02:56:00,
2013-10-14 22:00:00,62.6,47.2,30.09,SE,146,4.0,5.0,57,0.00,,,0.00,VWS V14.01,2013-10-15 03:00:00,
2013-10-14 22:01:00,63.2,48.7,30.08,SSW,204,0.0,1.0,59,0.00,,,0.00,VWS V14.01,2013-10-15 03:01:00,
2013-10-14 22:06:00,63.2,49.1,30.08,SSE,147,0.0,4.0,60,0.00,,,0.00,VWS V14.01,2013-10-15 03:06:00,
2013-10-14 22:11:00,63.1,49.5,30.08,ESE,117,0.0,4.0,61,0.00,,,0.00,VWS V14.01,2013-10-15 03:11:00,
2013-10-14 22:16:00,62.9,49.3,30.07,SE,126,0.0,4.0,61,0.00,,,0.00,VWS V14.01,2013-10-15 03:16:00,
2013-10-14 22:21:00,62.9,49.3,30.07,SSE,158,1.0,6.0,61,0.00,,,0.00,VWS V14.01,2013-10-15 03:21:00,
2013-10-14 22:26:00,63.1,49.5,30.08,SE,131,0.0,12.0,61,0.00,,,0.00,VWS V14.01,2013-10-15 03:26:00,
2013-10-14 22:30:00,62.9,47.9,30.09,SSE,153,0.0,8.0,58,0.00,,,0.00,VWS V14.01,2013-10-15 03:30:00,
2013-10-14 22:31:00,63.2,50.0,30.08,SE,129,0.0,1.0,62,0.00,,,0.00,VWS V14.01,2013-10-15 03:31:00,
2013-10-14 22:36:00,63.2,50.4,30.08,SE,129,0.0,1.0,63,0.00,,,0.00,VWS V14.01,2013-10-15 03:36:00,
2013-10-14 22:41:00,63.1,50.7,30.07,ESE,115,0.0,5.0,64,0.00,,,0.00,VWS V14.01,2013-10-15 03:41:00,
2013-10-14 22:46:00,62.8,51.3,30.07,ESE,108,2.0,9.0,66,0.00,,,0.00,VWS V14.01,2013-10-15 03:46:00,
2013-10-14 22:51:00,62.4,52.1,30.06,SE,124,2.0,9.0,69,0.00,,,0.00,VWS V14.01,2013-10-15 03:51:00,
2013-10-14 22:56:00,62.0,52.1,30.06,SE,132,0.0,9.0,70,0.00,,,0.00,VWS V14.01,2013-10-15 03:56:00,
2013-10-14 23:00:00,63.2,48.7,30.08,SSW,204,0.0,8.0,59,0.00,,,0.00,VWS V14.01,2013-10-15 04:00:00,
2013-10-14 23:01:00,61.7,52.2,30.06,SE,128,0.0,2.0,71,0.00,,,0.00,VWS V14.01,2013-10-15 04:01:00,
2013-10-14 23:06:00,61.4,52.7,30.06,SE,132,1.0,6.0,73,0.00,,,0.00,VWS V14.01,2013-10-15 04:06:00,
2013-10-14 23:11:00,61.1,52.8,30.05,ESE,109,0.0,7.0,74,0.01,,,0.01,VWS V14.01,2013-10-15 04:11:00,
2013-10-14 23:16:00,60.9,53.3,30.05,ESE,117,2.0,7.0,76,0.01,,,0.01,VWS V14.01,2013-10-15 04:16:00,
2013-10-14 23:21:00,60.5,53.3,30.05,East,85,0.0,7.0,77,0.02,,,0.02,VWS V14.01,2013-10-15 04:21:00,
2013-10-14 23:26:00,60.3,53.4,30.04,East,101,1.0,7.0,78,0.02,,,0.02,VWS V14.01,2013-10-15 04:26:00,
2013-10-14 23:30:00,60.2,53.3,30.04,ESE,104,2.0,7.0,78,0.02,,,0.02,VWS V14.01,2013-10-15 04:30:00,
2013-10-14 23:36:00,60.1,53.6,30.04,SE,134,2.0,6.0,79,0.02,,,0.02,VWS V14.01,2013-10-15 04:36:00,
2013-10-14 23:41:00,60.0,53.5,30.04,ESE,110,2.0,6.0,79,0.02,,,0.02,VWS V14.01,2013-10-15 04:41:00,
2013-10-14 23:47:00,60.0,53.8,30.04,ESE,121,2.0,6.0,80,0.02,,,0.02,VWS V14.01,2013-10-15 04:47:00,
2013-10-14 23:52:00,60.0,53.8,30.04,ESE,114,5.0,6.0,80,0.02,,,0.02,VWS V14.01,2013-10-15 04:52:00,
2013-10-14 23:57:00,60.0,53.8,30.04,ESE,105,0.0,7.0,80,0.02,,,0.02,VWS V14.01,2013-10-15 04:57:00,